Monroe, LA

10:40 PM CDT on May 28, 2017 (GMT -0500)
Monroe Regional

Weather History for KMLU - July, 2013

Change the Weather History Date:

Wednesday, July 10, 2013

  Actual Average Record
Temperature  
Mean Temperature 86 °F 83 °F  
Max Temperature 96 °F 94 °F 103 °F (1930)
Min Temperature 76 °F 72 °F 66 °F (1952)
Degree Days  
Heating Degree Days 0 0  
Month to date heating degree days 0 0  
Since 1 June heating degree days 0 0  
Since 1 July heating degree days 0 0  
Cooling Degree Days 21 18  
Month to date cooling degree days 147 180  
Year to date cooling degree days 941 1081  
Since 1 June cooling degree days 591 646  
Growing Degree Days 36 (Base 50)    
Moisture  
Dew Point 74 °F    
Average Humidity 69    
Maximum Humidity 91    
Minimum Humidity 46    
Precipitation  
Precipitation 0.00 in 0.13 in 2.10 in (1937)
Month to date precipitation 0.00 1.38  
Year to date precipitation 30.46 30.11  
Snow  
Snow 0.00 in - - ()
Month to date snowfall 0.0  
Since 1 June snowfall 0.0  
Since 1 July snowfall 0.0  
Snow Depth 0.00 in    
Sea Level Pressure  
Sea Level Pressure 30.03 in    
Wind  
Wind Speed 5 mph (SW)    
Max Wind Speed 13 mph    
Max Gust Speed 18 mph    
Visibility 10 miles    
Events      
T = Trace of Precipitation, MM = Missing Value Source: NWS Daily Summary

Daily Weather History Graph

Daily Weather History Graph

Search for Another Location

Airport or City:

Trip Planner

Search our weather history database for the weather conditions in past years. The results will help you decide how hot, cold, wet, or windy it might be!

Date:

Astronomy

Jul. 10, 2013 Rise Set
Actual Time 6:08 AM CDT 8:18 PM CDT
Civil Twilight 5:40 AM CDT 8:46 PM CDT
Nautical Twilight 5:06 AM CDT 9:20 PM CDT
Astronomical Twilight 4:29 AM CDT 9:57 PM CDT
Moon 8:20 AM CDT (7/10) 9:40 PM CDT (7/10)
Length of Visible Light 15h 05m
Length of Day
14h 09m
Waxing Crescent, 5% of the Moon is Illuminated
Jul 10
Waxing Crescent
Jul 15
First Quarter
Jul 22
Full
Jul 29
Last Quarter
Aug 6
New

Hourly Weather History & Observations

Time (CDT) Temp. Heat Index Dew Point Humidity Pressure Visibility Wind Dir Wind Speed Gust Speed Precip Events Conditions
12:53 AM 79.0 °F - 73.0 °F 82% 30.06 in 10.0 mi South 4.6 mph - N/A   Clear
1:53 AM 78.1 °F - 73.9 °F 87% 30.06 in 10.0 mi SSW 4.6 mph - N/A   Clear
2:53 AM 78.1 °F - 73.9 °F 87% 30.07 in 10.0 mi SSW 5.8 mph - N/A   Clear
3:53 AM 78.1 °F - 73.9 °F 87% 30.08 in 10.0 mi SSW 4.6 mph - N/A   Clear
4:53 AM 77.0 °F - 73.9 °F 90% 30.07 in 10.0 mi SW 6.9 mph - N/A   Clear
5:53 AM 77.0 °F - 73.9 °F 90% 30.08 in 10.0 mi SSW 3.5 mph - N/A   Clear
6:53 AM 77.0 °F - 73.9 °F 90% 30.08 in 10.0 mi WSW 6.9 mph - N/A   Clear
7:53 AM 80.1 °F 84.5 °F 73.9 °F 81% 30.09 in 10.0 mi WSW 9.2 mph - N/A   Clear
8:53 AM 82.9 °F 89.4 °F 73.9 °F 74% 30.09 in 10.0 mi WSW 9.2 mph - N/A   Clear
9:53 AM 86.0 °F 93.8 °F 73.9 °F 67% 30.10 in 10.0 mi West 9.2 mph - N/A   Scattered Clouds
10:53 AM 89.1 °F 97.0 °F 73.0 °F 59% 30.09 in 10.0 mi West 6.9 mph - N/A   Clear
11:53 AM 88.0 °F 95.6 °F 73.0 °F 61% 30.09 in 10.0 mi West 5.8 mph - N/A   Overcast
12:53 PM 91.9 °F 103.2 °F 75.0 °F 58% 30.06 in 10.0 mi SW 10.4 mph - N/A   Mostly Cloudy
1:53 PM 91.9 °F 101.3 °F 73.9 °F 55% 30.04 in 10.0 mi West 8.1 mph - N/A   Clear
2:53 PM 93.0 °F 101.9 °F 73.0 °F 52% 30.01 in 10.0 mi Calm Calm - N/A   Clear
3:53 PM 93.0 °F 100.7 °F 72.0 °F 50% 29.99 in 10.0 mi West 5.8 mph - N/A   Mostly Cloudy
4:53 PM 95.0 °F 102.5 °F 71.1 °F 46% 29.96 in 10.0 mi SW 6.9 mph - N/A   Clear
5:53 PM 93.9 °F 102.1 °F 72.0 °F 49% 29.94 in 10.0 mi Calm Calm - N/A   Mostly Cloudy
6:53 PM 91.0 °F 100.4 °F 73.9 °F 57% 29.95 in 10.0 mi SSE 4.6 mph - N/A   Scattered Clouds
7:53 PM 89.1 °F 99.1 °F 75.0 °F 63% 29.95 in 10.0 mi South 6.9 mph - N/A   Mostly Cloudy
8:53 PM 84.9 °F 92.1 °F 73.9 °F 69% 29.96 in 10.0 mi South 4.6 mph - N/A   Clear
9:53 PM 82.0 °F 87.9 °F 73.9 °F 76% 29.96 in 10.0 mi South 4.6 mph - N/A   Clear
10:53 PM 81.0 °F 86.2 °F 73.9 °F 79% 29.97 in 10.0 mi Calm Calm - N/A   Clear
11:53 PM 79.0 °F - 75.0 °F 88% 29.96 in 10.0 mi Calm Calm - N/A   Clear